owner,sensor,date,latitude,longitude,vertical_datum,direction_of_sea_water_velocity,sea_water_speed,upward_sea_water_velocity,qcFlag 
TABS,ioos:station:wmo:42048:1,2012-05-01T00:00:00Z,27.9396,-96.8429,2.0,271.1357043,26.24515193,-99999.0,'11111222,11111222,99999999' 
TABS,ioos:station:wmo:42048:1,2012-05-01T00:30:00Z,27.9396,-96.8429,2.0,274.9278837,27.00982229,-99999.0,'11111222,11111222,99999999' 
TABS,ioos:station:wmo:42048:1,2012-05-01T01:00:00Z,27.9396,-96.8429,2.0,276.7948122,24.93511781,-99999.0,'11111222,11111222,99999999' 
TABS,ioos:station:wmo:42048:1,2012-05-01T01:30:00Z,27.9396,-96.8429,2.0,277.3612715,25.9135563,-99999.0,'11111222,11111222,99999999' 
TABS,ioos:station:wmo:42048:1,2012-05-01T02:00:00Z,27.9396,-96.8429,2.0,268.7897888,24.15538449,-99999.0,'11111222,11111222,99999999' 
TABS,ioos:station:wmo:42048:1,2012-05-01T02:30:00Z,27.9396,-96.8429,2.0,269.6206452,22.68049603,-99999.0,'11111222,11111222,99999999' 
TABS,ioos:station:wmo:42048:1,2012-05-01T03:00:00Z,27.9396,-96.8429,2.0,269.7679658,19.7901617,-99999.0,'11111222,11111222,99999999' 
TABS,ioos:station:wmo:42048:1,2012-05-01T03:30:00Z,27.9396,-96.8429,2.0,259.9814035,19.48712909,-99999.0,'11111222,11111222,99999999' 
TABS,ioos:station:wmo:42048:1,2012-05-01T04:00:00Z,27.9396,-96.8429,2.0,252.9439787,18.78621037,-99999.0,'11111222,11111222,99999999' 
TABS,ioos:station:wmo:42048:1,2012-05-01T04:30:00Z,27.9396,-96.8429,2.0,252.1051823,20.11298088,-99999.0,'11111222,11111222,99999999' 
TABS,ioos:station:wmo:42048:1,2012-05-01T05:00:00Z,27.9396,-96.8429,2.0,234.0961545,18.02456379,-99999.0,'11111222,11111222,99999999' 
TABS,ioos:station:wmo:42048:1,2012-05-01T05:30:00Z,27.9396,-96.8429,2.0,234.5862698,19.82840639,-99999.0,'11111222,11111222,99999999' 
TABS,ioos:station:wmo:42048:1,2012-05-01T06:00:00Z,27.9396,-96.8429,2.0,233.8939984,18.29362731,-99999.0,'11111222,11111222,99999999' 
TABS,ioos:station:wmo:42048:1,2012-05-01T06:30:00Z,27.9396,-96.8429,2.0,237.0972755,19.77138336,-99999.0,'11111222,11111222,99999999' 
TABS,ioos:station:wmo:42048:1,2012-05-01T07:00:00Z,27.9396,-96.8429,2.0,224.2744617,18.9944097,-99999.0,'11111222,11111222,99999999' 
TABS,ioos:station:wmo:42048:1,2012-05-01T07:30:00Z,27.9396,-96.8429,2.0,220.5166247,20.62577029,-99999.0,'11111222,11111222,99999999' 
TABS,ioos:station:wmo:42048:1,2012-05-01T08:00:00Z,27.9396,-96.8429,2.0,222.0210096,21.22774128,-99999.0,'11111222,11111222,99999999' 
TABS,ioos:station:wmo:42048:1,2012-05-01T08:30:00Z,27.9396,-96.8429,2.0,219.6516696,21.01476862,-99999.0,'11111222,11111222,99999999' 
TABS,ioos:station:wmo:42048:1,2012-05-01T09:00:00Z,27.9396,-96.8429,2.0,226.7155335,21.01756646,-99999.0,'11111222,11111222,99999999' 
TABS,ioos:station:wmo:42048:1,2012-05-01T09:30:00Z,27.9396,-96.8429,2.0,230.5946502,18.13174564,-99999.0,'11111222,11111222,99999999' 
TABS,ioos:station:wmo:42048:1,2012-05-01T10:00:00Z,27.9396,-96.8429,2.0,228.7081038,18.36666546,-99999.0,'11111222,11111222,99999999' 
TABS,ioos:station:wmo:42048:1,2012-05-01T10:30:00Z,27.9396,-96.8429,2.0,231.258706,19.84658157,-99999.0,'11111222,11111222,99999999' 
TABS,ioos:station:wmo:42048:1,2012-05-01T11:00:00Z,27.9396,-96.8429,2.0,224.8784788,23.39821574,-99999.0,'11111222,11111222,99999999' 
TABS,ioos:station:wmo:42048:1,2012-05-01T11:30:00Z,27.9396,-96.8429,2.0,224.8502611,24.402338,-99999.0,'11111222,11111222,99999999' 
TABS,ioos:station:wmo:42048:1,2012-05-01T12:00:00Z,27.9396,-96.8429,2.0,217.8165502,24.20330556,-99999.0,'11111222,11111222,99999999' 
TABS,ioos:station:wmo:42048:1,2012-05-01T12:30:00Z,27.9396,-96.8429,2.0,223.679224,28.84347413,-99999.0,'11111222,11111222,99999999' 
TABS,ioos:station:wmo:42048:1,2012-05-01T13:00:00Z,27.9396,-96.8429,2.0,219.0296823,23.93100499,-99999.0,'11111222,11111222,99999999' 
TABS,ioos:station:wmo:42048:1,2012-05-01T13:30:00Z,27.9396,-96.8429,2.0,219.1044383,25.54142713,-99999.0,'11111222,11111222,99999999' 
TABS,ioos:station:wmo:42048:1,2012-05-01T14:00:00Z,27.9396,-96.8429,2.0,218.0888957,28.85453344,-99999.0,'11111222,11111222,99999999' 
TABS,ioos:station:wmo:42048:1,2012-05-01T14:30:00Z,27.9396,-96.8429,2.0,229.8030208,24.57341043,-99999.0,'11111222,11111222,99999999' 
TABS,ioos:station:wmo:42048:1,2012-05-01T15:00:00Z,27.9396,-96.8429,2.0,224.6275248,22.8612445,-99999.0,'11111222,11111222,99999999' 
TABS,ioos:station:wmo:42048:1,2012-05-01T15:30:00Z,27.9396,-96.8429,2.0,231.5676319,24.35705237,-99999.0,'11111222,11111222,99999999' 
TABS,ioos:station:wmo:42048:1,2012-05-01T16:00:00Z,27.9396,-96.8429,2.0,227.6402801,25.63155282,-99999.0,'11111222,11111222,99999999' 
TABS,ioos:station:wmo:42048:1,2012-05-01T16:30:00Z,27.9396,-96.8429,2.0,228.8444612,24.57069189,-99999.0,'11111222,11111222,99999999' 
TABS,ioos:station:wmo:42048:1,2012-05-01T17:00:00Z,27.9396,-96.8429,2.0,232.2582186,21.82652515,-99999.0,'11111222,11111222,99999999' 
TABS,ioos:station:wmo:42048:1,2012-05-01T17:30:00Z,27.9396,-96.8429,2.0,242.2148717,19.32847899,-99999.0,'11111222,11111222,99999999' 
TABS,ioos:station:wmo:42048:1,2012-05-01T18:00:00Z,27.9396,-96.8429,2.0,235.2204181,18.53033459,-99999.0,'11111222,11111222,99999999' 
TABS,ioos:station:wmo:42048:1,2012-05-01T18:30:00Z,27.9396,-96.8429,2.0,239.1945173,17.96454564,-99999.0,'11111222,11111222,99999999' 
TABS,ioos:station:wmo:42048:1,2012-05-01T19:00:00Z,27.9396,-96.8429,2.0,242.4768493,17.65845973,-99999.0,'11111222,11111222,99999999' 
TABS,ioos:station:wmo:42048:1,2012-05-01T19:30:00Z,27.9396,-96.8429,2.0,251.0404427,16.59000301,-99999.0,'11111222,11111222,99999999' 
TABS,ioos:station:wmo:42048:1,2012-05-01T20:00:00Z,27.9396,-96.8429,2.0,258.1406974,12.8952278,-99999.0,'11111222,11111222,99999999' 
TABS,ioos:station:wmo:42048:1,2012-05-01T20:30:00Z,27.9396,-96.8429,2.0,260.8459508,16.78373618,-99999.0,'11111222,11111222,99999999' 
TABS,ioos:station:wmo:42048:1,2012-05-01T21:00:00Z,27.9396,-96.8429,2.0,270.9545974,14.41199847,-99999.0,'11111222,11111222,99999999' 
TABS,ioos:station:wmo:42048:1,2012-05-01T21:30:00Z,27.9396,-96.8429,2.0,301.3290405,18.30956034,-99999.0,'11111222,11111222,99999999' 
TABS,ioos:station:wmo:42048:1,2012-05-01T22:00:00Z,27.9396,-96.8429,2.0,311.736992,19.37786366,-99999.0,'11111222,11111222,99999999' 
TABS,ioos:station:wmo:42048:1,2012-05-01T22:30:00Z,27.9396,-96.8429,2.0,307.4319364,20.40098037,-99999.0,'11111222,11111222,99999999' 
TABS,ioos:station:wmo:42048:1,2012-05-01T23:00:00Z,27.9396,-96.8429,2.0,300.9146611,19.87326345,-99999.0,'11111222,11111222,99999999' 
TABS,ioos:station:wmo:42048:1,2012-05-01T23:30:00Z,27.9396,-96.8429,2.0,296.9068018,21.76627207,-99999.0,'11111222,11111222,99999999' 
TABS,ioos:station:wmo:42048:1,2012-05-02T00:00:00Z,27.9396,-96.8429,2.0,290.9312076,22.36587132,-99999.0,'11111222,11111222,99999999' 
TABS,ioos:station:wmo:42048:1,2012-05-02T00:30:00Z,27.9396,-96.8429,2.0,285.3610207,18.57348917,-99999.0,'11111222,11111222,99999999' 
TABS,ioos:station:wmo:42048:1,2012-05-02T01:00:00Z,27.9396,-96.8429,2.0,280.6963173,21.22882945,-99999.0,'11111222,11111222,99999999' 
TABS,ioos:station:wmo:42048:1,2012-05-02T01:30:00Z,27.9396,-96.8429,2.0,274.1421866,20.35315455,-99999.0,'11111222,11111222,99999999' 
TABS,ioos:station:wmo:42048:1,2012-05-02T02:00:00Z,27.9396,-96.8429,2.0,265.2060202,22.25785255,-99999.0,'11111222,11111222,99999999' 
TABS,ioos:station:wmo:42048:1,2012-05-02T02:30:00Z,27.9396,-96.8429,2.0,274.4067892,22.90771049,-99999.0,'11111222,11111222,99999999' 
TABS,ioos:station:wmo:42048:1,2012-05-02T03:00:00Z,27.9396,-96.8429,2.0,278.2029546,25.72315105,-99999.0,'11111222,11111222,99999999' 
TABS,ioos:station:wmo:42048:1,2012-05-02T03:30:00Z,27.9396,-96.8429,2.0,276.8983378,27.22707843,-99999.0,'11111222,11111222,99999999' 
TABS,ioos:station:wmo:42048:1,2012-05-02T04:00:00Z,27.9396,-96.8429,2.0,277.0189017,30.68996742,-99999.0,'11111222,11111222,99999999' 
TABS,ioos:station:wmo:42048:1,2012-05-02T04:30:00Z,27.9396,-96.8429,2.0,274.2809199,29.74296555,-99999.0,'11111222,11111222,99999999' 
TABS,ioos:station:wmo:42048:1,2012-05-02T05:00:00Z,27.9396,-96.8429,2.0,269.6892469,29.54043331,-99999.0,'11111222,11111222,99999999' 
TABS,ioos:station:wmo:42048:1,2012-05-02T05:30:00Z,27.9396,-96.8429,2.0,271.4469732,29.70946819,-99999.0,'11111222,11111222,99999999' 
TABS,ioos:station:wmo:42048:1,2012-05-02T06:00:00Z,27.9396,-96.8429,2.0,271.9725191,27.89652308,-99999.0,'11111222,11111222,99999999' 
TABS,ioos:station:wmo:42048:1,2012-05-02T06:30:00Z,27.9396,-96.8429,2.0,265.7945686,24.95718333,-99999.0,'11111222,11111222,99999999' 
TABS,ioos:station:wmo:42048:1,2012-05-02T07:00:00Z,27.9396,-96.8429,2.0,264.4585516,25.89098106,-99999.0,'11111222,11111222,99999999' 
TABS,ioos:station:wmo:42048:1,2012-05-02T07:30:00Z,27.9396,-96.8429,2.0,263.0477839,24.20796976,-99999.0,'11111222,11111222,99999999' 
TABS,ioos:station:wmo:42048:1,2012-05-02T08:00:00Z,27.9396,-96.8429,2.0,262.2366373,23.39440104,-99999.0,'11111222,11111222,99999999' 
TABS,ioos:station:wmo:42048:1,2012-05-02T08:30:00Z,27.9396,-96.8429,2.0,251.5098625,19.83381456,-99999.0,'11111222,11111222,99999999' 
TABS,ioos:station:wmo:42048:1,2012-05-02T09:00:00Z,27.9396,-96.8429,2.0,258.5274222,21.4689194,-99999.0,'11111222,11111222,99999999' 
TABS,ioos:station:wmo:42048:1,2012-05-02T09:30:00Z,27.9396,-96.8429,2.0,254.6934759,20.68366747,-99999.0,'11111222,11111222,99999999' 
TABS,ioos:station:wmo:42048:1,2012-05-02T10:00:00Z,27.9396,-96.8429,2.0,252.7620566,19.37001807,-99999.0,'11111222,11111222,99999999' 
TABS,ioos:station:wmo:42048:1,2012-05-02T10:30:00Z,27.9396,-96.8429,2.0,236.6806918,19.69781714,-99999.0,'11111222,11111222,99999999' 
TABS,ioos:station:wmo:42048:1,2012-05-02T11:00:00Z,27.9396,-96.8429,2.0,246.4022397,16.41238861,-99999.0,'11111222,11111222,99999999' 
TABS,ioos:station:wmo:42048:1,2012-05-02T11:30:00Z,27.9396,-96.8429,2.0,254.8923173,16.99744098,-99999.0,'11111222,11111222,99999999' 
TABS,ioos:station:wmo:42048:1,2012-05-02T12:00:00Z,27.9396,-96.8429,2.0,258.1542153,13.64047287,-99999.0,'11111222,11111222,99999999' 
TABS,ioos:station:wmo:42048:1,2012-05-02T12:30:00Z,27.9396,-96.8429,2.0,265.9002068,14.82793647,-99999.0,'11111222,11111222,99999999' 
TABS,ioos:station:wmo:42048:1,2012-05-02T13:00:00Z,27.9396,-96.8429,2.0,276.2611426,15.13023794,-99999.0,'11111222,11111222,99999999' 
TABS,ioos:station:wmo:42048:1,2012-05-02T13:30:00Z,27.9396,-96.8429,2.0,266.9903118,17.14364022,-99999.0,'11111222,11111222,99999999' 
TABS,ioos:station:wmo:42048:1,2012-05-02T14:00:00Z,27.9396,-96.8429,2.0,265.3747182,17.48693798,-99999.0,'11111222,11111222,99999999' 
TABS,ioos:station:wmo:42048:1,2012-05-02T14:30:00Z,27.9396,-96.8429,2.0,245.9162224,18.28134842,-99999.0,'11111222,11111222,99999999' 
TABS,ioos:station:wmo:42048:1,2012-05-02T15:00:00Z,27.9396,-96.8429,2.0,250.0993696,10.63505524,-99999.0,'11111222,11111222,99999999' 
TABS,ioos:station:wmo:42048:1,2012-05-02T15:30:00Z,27.9396,-96.8429,2.0,261.9169652,8.534781778,-99999.0,'11133222,11111222,99999999' 
TABS,ioos:station:wmo:42048:1,2012-05-02T16:00:00Z,27.9396,-96.8429,2.0,233.7230446,6.760362416,-99999.0,'11133222,11111222,99999999' 
TABS,ioos:station:wmo:42048:1,2012-05-02T16:30:00Z,27.9396,-96.8429,2.0,247.906999,9.864263784,-99999.0,'11133222,11111222,99999999' 
TABS,ioos:station:wmo:42048:1,2012-05-02T17:00:00Z,27.9396,-96.8429,2.0,237.1233942,9.763708312,-99999.0,'11133222,11111222,99999999' 
TABS,ioos:station:wmo:42048:1,2012-05-02T17:30:00Z,27.9396,-96.8429,2.0,241.3292453,11.44297601,-99999.0,'11111222,11111222,99999999' 
TABS,ioos:station:wmo:42048:1,2012-05-02T18:00:00Z,27.9396,-96.8429,2.0,238.5410744,6.553205323,-99999.0,'11133222,11111222,99999999' 
TABS,ioos:station:wmo:42048:1,2012-05-02T18:30:00Z,27.9396,-96.8429,2.0,224.1316349,13.06883315,-99999.0,'11111222,11111222,99999999' 
TABS,ioos:station:wmo:42048:1,2012-05-02T19:00:00Z,27.9396,-96.8429,2.0,213.6115361,14.21697929,-99999.0,'11111222,11111222,99999999' 
TABS,ioos:station:wmo:42048:1,2012-05-02T19:30:00Z,27.9396,-96.8429,2.0,213.6679181,14.5386932,-99999.0,'11111222,11111222,99999999' 
TABS,ioos:station:wmo:42048:1,2012-05-02T20:00:00Z,27.9396,-96.8429,2.0,216.8765611,16.46400012,-99999.0,'11111222,11111222,99999999' 
TABS,ioos:station:wmo:42048:1,2012-05-02T20:30:00Z,27.9396,-96.8429,2.0,215.9332028,14.80797758,-99999.0,'11111222,11111222,99999999' 
TABS,ioos:station:wmo:42048:1,2012-05-02T21:00:00Z,27.9396,-96.8429,2.0,216.6577881,16.23011091,-99999.0,'11111222,11111222,99999999' 
TABS,ioos:station:wmo:42048:1,2012-05-02T21:30:00Z,27.9396,-96.8429,2.0,224.9996843,14.07142495,-99999.0,'11111222,11111222,99999999' 
TABS,ioos:station:wmo:42048:1,2012-05-02T22:00:00Z,27.9396,-96.8429,2.0,224.2655414,13.79678586,-99999.0,'11111222,11111222,99999999' 
TABS,ioos:station:wmo:42048:1,2012-05-02T22:30:00Z,27.9396,-96.8429,2.0,237.2528198,14.82637177,-99999.0,'11111222,11111222,99999999' 
TABS,ioos:station:wmo:42048:1,2012-05-02T23:00:00Z,27.9396,-96.8429,2.0,240.1255167,17.0448966,-99999.0,'11111222,11111222,99999999' 
TABS,ioos:station:wmo:42048:1,2012-05-02T23:30:00Z,27.9396,-96.8429,2.0,244.8689848,19.47330994,-99999.0,'11111222,11111222,99999999' 
TABS,ioos:station:wmo:42048:1,2012-05-03T00:00:00Z,27.9396,-96.8429,2.0,246.593633,23.9399457,-99999.0,'11111222,11111222,99999999' 
TABS,ioos:station:wmo:42048:1,2012-05-03T00:30:00Z,27.9396,-96.8429,2.0,248.1326435,22.71426864,-99999.0,'11111222,11111222,99999999' 
TABS,ioos:station:wmo:42048:1,2012-05-03T01:00:00Z,27.9396,-96.8429,2.0,249.3210442,21.89025582,-99999.0,'11111222,11111222,99999999' 
TABS,ioos:station:wmo:42048:1,2012-05-03T01:30:00Z,27.9396,-96.8429,2.0,248.5468331,22.58468508,-99999.0,'11111222,11111222,99999999' 
TABS,ioos:station:wmo:42048:1,2012-05-03T02:00:00Z,27.9396,-96.8429,2.0,251.745944,25.98772787,-99999.0,'11111222,11111222,99999999' 
TABS,ioos:station:wmo:42048:1,2012-05-03T02:30:00Z,27.9396,-96.8429,2.0,256.6091181,26.46959388,-99999.0,'11111222,11111222,99999999' 
TABS,ioos:station:wmo:42048:1,2012-05-03T03:00:00Z,27.9396,-96.8429,2.0,255.3032978,27.15851616,-99999.0,'11111222,11111222,99999999' 
TABS,ioos:station:wmo:42048:1,2012-05-03T03:30:00Z,27.9396,-96.8429,2.0,256.561241,27.19457483,-99999.0,'11111222,11111222,99999999' 
TABS,ioos:station:wmo:42048:1,2012-05-03T04:00:00Z,27.9396,-96.8429,2.0,252.8869284,29.60047635,-99999.0,'11111222,11111222,99999999' 
TABS,ioos:station:wmo:42048:1,2012-05-03T04:30:00Z,27.9396,-96.8429,2.0,257.1382075,29.33600007,-99999.0,'11111222,11111222,99999999' 
TABS,ioos:station:wmo:42048:1,2012-05-03T05:00:00Z,27.9396,-96.8429,2.0,265.9759833,27.64814641,-99999.0,'11111222,11111222,99999999' 
TABS,ioos:station:wmo:42048:1,2012-05-03T05:30:00Z,27.9396,-96.8429,2.0,266.3522786,29.71017671,-99999.0,'11111222,11111222,99999999' 
TABS,ioos:station:wmo:42048:1,2012-05-03T06:00:00Z,27.9396,-96.8429,2.0,266.0870454,30.1903627,-99999.0,'11111222,11111222,99999999' 
TABS,ioos:station:wmo:42048:1,2012-05-03T06:30:00Z,27.9396,-96.8429,2.0,258.79461,27.84069324,-99999.0,'11111222,11111222,99999999' 
TABS,ioos:station:wmo:42048:1,2012-05-03T07:00:00Z,27.9396,-96.8429,2.0,258.2610353,26.73922213,-99999.0,'11111222,11111222,99999999' 
TABS,ioos:station:wmo:42048:1,2012-05-03T07:30:00Z,27.9396,-96.8429,2.0,253.4605508,26.38151247,-99999.0,'11111222,11111222,99999999' 
TABS,ioos:station:wmo:42048:1,2012-05-03T08:00:00Z,27.9396,-96.8429,2.0,259.1746307,21.08520097,-99999.0,'11111222,11111222,99999999' 
TABS,ioos:station:wmo:42048:1,2012-05-03T08:30:00Z,27.9396,-96.8429,2.0,249.4340448,21.09432625,-99999.0,'11111222,11111222,99999999' 
TABS,ioos:station:wmo:42048:1,2012-05-03T09:00:00Z,27.9396,-96.8429,2.0,243.8967397,21.06891786,-99999.0,'11111222,11111222,99999999' 
TABS,ioos:station:wmo:42048:1,2012-05-03T09:30:00Z,27.9396,-96.8429,2.0,238.2690948,21.65706582,-99999.0,'11111222,11111222,99999999' 
TABS,ioos:station:wmo:42048:1,2012-05-03T10:00:00Z,27.9396,-96.8429,2.0,239.1736369,19.26106176,-99999.0,'11111222,11111222,99999999' 
TABS,ioos:station:wmo:42048:1,2012-05-03T10:30:00Z,27.9396,-96.8429,2.0,237.0875722,16.54545859,-99999.0,'11111222,11111222,99999999' 
TABS,ioos:station:wmo:42048:1,2012-05-03T11:00:00Z,27.9396,-96.8429,2.0,242.1839253,16.80134518,-99999.0,'11111222,11111222,99999999' 
TABS,ioos:station:wmo:42048:1,2012-05-03T11:30:00Z,27.9396,-96.8429,2.0,236.4623784,13.52086536,-99999.0,'11111222,11111222,99999999' 
TABS,ioos:station:wmo:42048:1,2012-05-03T12:00:00Z,27.9396,-96.8429,2.0,232.317853,13.26733206,-99999.0,'11111222,11111222,99999999' 
TABS,ioos:station:wmo:42048:1,2012-05-03T12:30:00Z,27.9396,-96.8429,2.0,226.0850327,13.81227353,-99999.0,'11111222,11111222,99999999' 
TABS,ioos:station:wmo:42048:1,2012-05-03T13:00:00Z,27.9396,-96.8429,2.0,224.0686344,13.05491478,-99999.0,'11111222,11111222,99999999' 
TABS,ioos:station:wmo:42048:1,2012-05-03T13:30:00Z,27.9396,-96.8429,2.0,224.6997099,13.50592463,-99999.0,'11111222,11111222,99999999' 
TABS,ioos:station:wmo:42048:1,2012-05-03T14:00:00Z,27.9396,-96.8429,2.0,220.7328674,11.30969938,-99999.0,'11111222,11111222,99999999' 
TABS,ioos:station:wmo:42048:1,2012-05-03T14:30:00Z,27.9396,-96.8429,2.0,207.094403,13.54667856,-99999.0,'11111222,11111222,99999999' 
TABS,ioos:station:wmo:42048:1,2012-05-03T15:00:00Z,27.9396,-96.8429,2.0,202.7844667,13.6339026,-99999.0,'11111222,11111222,99999999' 
TABS,ioos:station:wmo:42048:1,2012-05-03T15:30:00Z,27.9396,-96.8429,2.0,192.7205603,15.21341842,-99999.0,'11111222,11111222,99999999' 
TABS,ioos:station:wmo:42048:1,2012-05-03T16:00:00Z,27.9396,-96.8429,2.0,196.5782989,17.2782667,-99999.0,'11111222,11111222,99999999' 
TABS,ioos:station:wmo:42048:1,2012-05-03T16:30:00Z,27.9396,-96.8429,2.0,194.0442052,16.93626287,-99999.0,'11111222,11111222,99999999' 
TABS,ioos:station:wmo:42048:1,2012-05-03T17:00:00Z,27.9396,-96.8429,2.0,196.6317129,21.2072464,-99999.0,'11111222,11111222,99999999' 
TABS,ioos:station:wmo:42048:1,2012-05-03T17:30:00Z,27.9396,-96.8429,2.0,189.760458,22.41446185,-99999.0,'11111222,11111222,99999999' 
TABS,ioos:station:wmo:42048:1,2012-05-03T18:00:00Z,27.9396,-96.8429,2.0,186.9933921,22.17498816,-99999.0,'11111222,11111222,99999999' 
TABS,ioos:station:wmo:42048:1,2012-05-03T18:30:00Z,27.9396,-96.8429,2.0,192.8333951,25.07643117,-99999.0,'11111222,11111222,99999999' 
TABS,ioos:station:wmo:42048:1,2012-05-03T19:00:00Z,27.9396,-96.8429,2.0,201.2068455,22.5576262,-99999.0,'11111222,11111222,99999999' 
TABS,ioos:station:wmo:42048:1,2012-05-03T19:30:00Z,27.9396,-96.8429,2.0,200.6443379,22.71888422,-99999.0,'11111222,11111222,99999999' 
TABS,ioos:station:wmo:42048:1,2012-05-03T20:00:00Z,27.9396,-96.8429,2.0,206.4606994,24.61914905,-99999.0,'11111222,11111222,99999999' 
TABS,ioos:station:wmo:42048:1,2012-05-03T20:30:00Z,27.9396,-96.8429,2.0,207.3054634,26.63826759,-99999.0,'11111222,11111222,99999999' 
TABS,ioos:station:wmo:42048:1,2012-05-03T21:00:00Z,27.9396,-96.8429,2.0,216.9652458,26.35803673,-99999.0,'11111222,11111222,99999999' 
TABS,ioos:station:wmo:42048:1,2012-05-03T21:30:00Z,27.9396,-96.8429,2.0,225.4904273,26.41847838,-99999.0,'11111222,11111222,99999999' 
TABS,ioos:station:wmo:42048:1,2012-05-03T22:00:00Z,27.9396,-96.8429,2.0,227.305539,25.4835496,-99999.0,'11111222,11111222,99999999' 
TABS,ioos:station:wmo:42048:1,2012-05-03T22:30:00Z,27.9396,-96.8429,2.0,229.058651,28.17108447,-99999.0,'11111222,11111222,99999999' 
TABS,ioos:station:wmo:42048:1,2012-05-03T23:00:00Z,27.9396,-96.8429,2.0,233.9708519,29.2931562,-99999.0,'11111222,11111222,99999999' 
TABS,ioos:station:wmo:42048:1,2012-05-03T23:30:00Z,27.9396,-96.8429,2.0,236.4062102,29.60439157,-99999.0,'11111222,11111222,99999999' 
TABS,ioos:station:wmo:42048:1,2012-05-04T00:00:00Z,27.9396,-96.8429,2.0,236.1673132,30.15636914,-99999.0,'11111222,11111222,99999999' 
TABS,ioos:station:wmo:42048:1,2012-05-04T00:30:00Z,27.9396,-96.8429,2.0,237.7179505,29.4523836,-99999.0,'11111222,11111222,99999999' 
TABS,ioos:station:wmo:42048:1,2012-05-04T01:00:00Z,27.9396,-96.8429,2.0,240.3703992,31.9588548,-99999.0,'11111222,11111222,99999999' 
TABS,ioos:station:wmo:42048:1,2012-05-04T01:30:00Z,27.9396,-96.8429,2.0,241.3352838,33.08470644,-99999.0,'11111222,11111222,99999999' 
TABS,ioos:station:wmo:42048:1,2012-05-04T02:00:00Z,27.9396,-96.8429,2.0,240.6606581,33.26695057,-99999.0,'11111222,11111222,99999999' 
TABS,ioos:station:wmo:42048:1,2012-05-04T02:30:00Z,27.9396,-96.8429,2.0,240.399747,32.3520834,-99999.0,'11111222,11111222,99999999' 
TABS,ioos:station:wmo:42048:1,2012-05-04T03:00:00Z,27.9396,-96.8429,2.0,239.6941746,34.48206635,-99999.0,'11111222,11111222,99999999' 
TABS,ioos:station:wmo:42048:1,2012-05-04T03:30:00Z,27.9396,-96.8429,2.0,242.9371905,32.96982863,-99999.0,'11111222,11111222,99999999' 
TABS,ioos:station:wmo:42048:1,2012-05-04T04:00:00Z,27.9396,-96.8429,2.0,244.3460702,32.89224985,-99999.0,'11111222,11111222,99999999' 
TABS,ioos:station:wmo:42048:1,2012-05-04T04:30:00Z,27.9396,-96.8429,2.0,245.0629172,31.94842406,-99999.0,'11111222,11111222,99999999' 
TABS,ioos:station:wmo:42048:1,2012-05-04T05:00:00Z,27.9396,-96.8429,2.0,242.1294296,30.82548621,-99999.0,'11111222,11111222,99999999' 
TABS,ioos:station:wmo:42048:1,2012-05-04T05:30:00Z,27.9396,-96.8429,2.0,245.2512576,29.90678853,-99999.0,'11111222,11111222,99999999' 
TABS,ioos:station:wmo:42048:1,2012-05-04T06:00:00Z,27.9396,-96.8429,2.0,238.0547113,30.14529648,-99999.0,'11111222,11111222,99999999' 
TABS,ioos:station:wmo:42048:1,2012-05-04T06:30:00Z,27.9396,-96.8429,2.0,243.8923117,29.11006183,-99999.0,'11111222,11111222,99999999' 
TABS,ioos:station:wmo:42048:1,2012-05-04T07:00:00Z,27.9396,-96.8429,2.0,234.0621166,30.48203569,-99999.0,'11111222,11111222,99999999' 
TABS,ioos:station:wmo:42048:1,2012-05-04T07:30:00Z,27.9396,-96.8429,2.0,233.2290668,28.85004333,-99999.0,'11111222,11111222,99999999' 
TABS,ioos:station:wmo:42048:1,2012-05-04T08:00:00Z,27.9396,-96.8429,2.0,230.7496014,25.62010343,-99999.0,'11111222,11111222,99999999' 
TABS,ioos:station:wmo:42048:1,2012-05-04T08:30:00Z,27.9396,-96.8429,2.0,230.6285838,25.66445012,-99999.0,'11111222,11111222,99999999' 
TABS,ioos:station:wmo:42048:1,2012-05-04T09:00:00Z,27.9396,-96.8429,2.0,235.4367564,27.67443044,-99999.0,'11111222,11111222,99999999' 
TABS,ioos:station:wmo:42048:1,2012-05-04T09:30:00Z,27.9396,-96.8429,2.0,231.1136791,28.87987708,-99999.0,'11111222,11111222,99999999' 
TABS,ioos:station:wmo:42048:1,2012-05-04T10:00:00Z,27.9396,-96.8429,2.0,220.6077421,27.60873956,-99999.0,'11111222,11111222,99999999' 
TABS,ioos:station:wmo:42048:1,2012-05-04T10:30:00Z,27.9396,-96.8429,2.0,222.3501958,25.08668173,-99999.0,'11111222,11111222,99999999' 
TABS,ioos:station:wmo:42048:1,2012-05-04T11:00:00Z,27.9396,-96.8429,2.0,214.0401714,28.11827875,-99999.0,'11111222,11111222,99999999' 
TABS,ioos:station:wmo:42048:1,2012-05-04T11:30:00Z,27.9396,-96.8429,2.0,218.7662959,25.13777238,-99999.0,'11111222,11111222,99999999' 
TABS,ioos:station:wmo:42048:1,2012-05-04T12:00:00Z,27.9396,-96.8429,2.0,221.4462133,28.74966782,-99999.0,'11111222,11111222,99999999' 
TABS,ioos:station:wmo:42048:1,2012-05-04T12:30:00Z,27.9396,-96.8429,2.0,220.4757342,28.77697865,-99999.0,'11111222,11111222,99999999' 
TABS,ioos:station:wmo:42048:1,2012-05-04T13:00:00Z,27.9396,-96.8429,2.0,213.8485219,29.03034619,-99999.0,'11111222,11111222,99999999' 
TABS,ioos:station:wmo:42048:1,2012-05-04T13:30:00Z,27.9396,-96.8429,2.0,215.5834945,27.44491392,-99999.0,'11111222,11111222,99999999' 
TABS,ioos:station:wmo:42048:1,2012-05-04T14:00:00Z,27.9396,-96.8429,2.0,212.3548085,29.52361089,-99999.0,'11111222,11111222,99999999' 
TABS,ioos:station:wmo:42048:1,2012-05-04T14:30:00Z,27.9396,-96.8429,2.0,214.3299265,28.29979682,-99999.0,'11111222,11111222,99999999' 
TABS,ioos:station:wmo:42048:1,2012-05-04T15:00:00Z,27.9396,-96.8429,2.0,214.0568144,29.87399203,-99999.0,'11111222,11111222,99999999' 
TABS,ioos:station:wmo:42048:1,2012-05-04T15:30:00Z,27.9396,-96.8429,2.0,211.7005878,25.72863191,-99999.0,'11111222,11111222,99999999' 
TABS,ioos:station:wmo:42048:1,2012-05-04T16:00:00Z,27.9396,-96.8429,2.0,210.9285633,25.33206071,-99999.0,'11111222,11111222,99999999' 